Etusivu
METAR-TAF:

METAR-TAF

Lentoasemat :

Berbérati, Keski-Afrikan tasavalta

Leveyspiiri: 04-15N, Pituuspiiri: 015-48E, korkeus merenpinnasta: 582 m

Tämänhetkinen sää

Tämä raportti tehtiin 52 minuuttia sitten, kello 08.00 UTC
Tuuli 6 kn lännestä
Lämpötila 26°C
Kosteus 65%
Ilmanpaine 1015 hPa
Näkyvyys 10 km tai enemmän
ei pilviä alle 1500 m:ssä eikä cumulonimbus-pilviä

METAR: FEFT 240800Z 28006KT CAVOK 26/19 Q1015

Aika: 09:52 (08:52 UTC)


TAF: puuttuu

Säähavainnot ja -ennusteet yli 4000 lentoasemalta (METAR- ja TAF-raportit).

Käytössä olevat sääasemat on merkitty karttaan keltaisilla ja punaisilla pisteillä.

Aseta hiiri pisteen päälle nähdäksesi sääaseman nimen.

Klikkaa sitten nähdäksesi säähavainnot ja -ennusteet.

Kartan vaihtaminen: klikkaa mustalla rastilla varustettuja vihreitä pisteitä, niin voit zoomata sisään; viivalla varustettua vihreää pistettä, niin voit zoomata ulos tai vihreitä nuolia, niin pääset viereisille kartoille.


METAR-TAF: